星链-36765(STARLINK-36765)

导读

STARLINK-36765(NORAD编号68962)是美国SpaceX公司星链(Starlink)星座中的一颗低轨互联网通信卫星,属于星链卫星组网的组成部分,旨在为全球提供高速低延迟卫星互联网服务。 星链项目作为全球规模最大的低轨卫星星座计划,该卫星遵循SpaceX的设计标准,服役于近地轨道,承担天地通信传输任务。2026年SpaceX启动降轨计划,将包括该卫星在内的约4400颗星链卫星轨道高度从550公里降至480公里,降低碰撞风险,减少太空碎片隐患,提升太空运行安全。

Basic Information
目录编号:
68962
目录名称:
STARLINK-36765
国际标识:
2026-099M
轨道中心:
EARTH
卫星名称:
星链-36765
卫星全名:
星链-36765(STARLINK-36765)
卫星状态:
在轨 (已飞行126 天)
发射日期:
2026-05-01 UTC
国别 :
美国 (US)
星等 :
--
Orbit Information
数据来源 国际轨道数据 AOE轨道数据
星历时间 2026-09-03T13:38:38+0800
22小时前
查看轨道信息
2026-09-04T00:00:00+0800
12小时前
查看轨道信息
半长轴 6840.808km 6840.804km
偏心率 0.0001306 0.0001153
轨道倾角 53.157° 53.156°
近地点辐角 100.676° 88.543°
升交点赤经 156.510° 154.493°
平近点角 259.439° 136.468°
近地点 461.777km 461.878km
远地点 463.565km 463.456km
周期 93.847分钟 93.847分钟
每日圈数 15.344109 15.344125
Detailed Information
固有亮度:
5
最大亮度:
2.5
卫星平台:
Starlink V1.0
覆盖范围:
全球
运营商:
太空探索技术公司
运营商所在国:
美国
制造商(研发单位):
太空探索技术公司
制造商所在国:
美国
使用方式:
暂无
Satellite Introduction
Starlink 计划是 SpaceX 推出的全球卫星互联网项目,通过发射低轨道卫星,为全球尤其是偏远地区提供高速、低延迟的互联网服务。自 2019 年起,Starlink 已部署数千颗卫星,旨在缩小全球数字鸿沟,推动互联网普及。该项目还为军事、航空等行业提供通信支持,带来广泛经济效益。
2D Orbit Map
3D Orbit Map
Orbit Altitude Analysis Chart
Orbit Inclination Analysis Chart
Orbit Comprehensive Analysis Chart
View Comprehensive Chart
Conjunction Data List
Event ID Objects TCA Miss Dist (km) Collision Risk Probability Collision Risk Index (CRI) Action
CDM_260904-134506-442006-896221
2026-09-04T
13:45:01+0000
0.594 km
远距离
1.265752E-4 高风险 0.77
CDM_260905-104606-666706-896221
2026-09-05T
10:46:16+0000
0.705 km
远距离
8.372344E-5 中风险 0.73
CDM_260905-113306-666706-896221
2026-09-05T
11:33:11+0000
1.273 km
极远距离
1.169667E-5 中风险 0.56
CDM_260905-114905-702306-896221
OBJECT V (57023)
2026-09-05T
11:49:10+0000
2.437 km
极远距离
1.792163E-6 低风险 0.4
CDM_260905-010706-460606-896221
2026-09-05T
01:07:41+0000
2.952 km
极远距离
9.178323E-7 极低风险 0.34